Regional Weather Roundup
Issued by NWS

Home | Current Version | Previous Version | Graphics & Text | Print | Product List | Glossary On
Versions: 1 2 3 4 5 6 7 8 9 10 11 12 13 14 15 16 17 18 19 20 21 22 23 24 25 26 27 28 29 30 31 32 33 34 35 36 37 38 39 40 41 42 43 44 45 46 47 48 49 50
000
ASUS43 KIND 221159
RWRIN

WEATHER ROUNDUP FOR INDIANA
NATIONAL WEATHER SERVICE INDIANAPOLIS IN
700 AM EST WED NOV 22 2017

NOTE: "FAIR" INDICATES FEW OR NO CLOUDS BELOW 12,000 FEET WITH NO
SIGNIFICANT WEATHER AND/OR OBSTRUCTIONS TO VISIBILITY.

* - STATION DOES NOT REPORT WEATHER SUCH AS PRECIPITATION OR FOG.

+ - STATION NOT QUALITY CONTROLLED BY THE NATIONAL WEATHER SERVICE.
    USE DATA WITH CAUTION...ESPECIALLY DEWPOINT AND RELATIVE
    HUMIDITY OBSERVATIONS.

INZ001>003-010>013-019-020-221300-
NORTHWEST INDIANA

CITY           SKY/WX    TMP DP  RH WIND       PRES   REMARKS
GARY /AIRPORT/ PTCLDY    27  16  63 NW12      30.30S WCI  16
KNOX *+        CLOUDY    28  21  74 W6        30.27R WCI  22
MICHIGAN CITY+ CLOUDY    32  21  64 N3        30.29R
MONTICELLO +   CLEAR     22  17  81 NW7       30.29R WCI  14
6HR MIN TEMP:  22; 6HR MAX TEMP:  28;

RENSSELAER +   CLOUDY    27  18  69 NW7       30.30R WCI  19

$$

LMZ046-743>745-221300-
SOUTHERN LAKE MICHIGAN

STATION/POSITION TIME  TEMP    WIND        PRES    WAVE
                       AIR SEA DIR/SP/G            HT
                 (UTC) (F)     (DEG/KT/KT) (MB)    (FT)
BURNS HARBOR     1140   32      10/ 12/ 18 1026.1R
MICHIGAN CITY    1130   32     340/ 11/ 14   N/A

$$

INZ004-005-014>016-021>024-221300-
NORTH CENTRAL INDIANA

CITY           SKY/WX    TMP DP  RH WIND       PRES   REMARKS
ELKHART        CLOUDY    32  19  59 N6        30.25  WCI  26
GOSHEN         CLOUDY    32  21  64 N8        30.24R WCI  25
6HR MIN TEMP:  32; 6HR MAX TEMP:  33;

PERU/GRISSOM   MOCLDY    26  20  78 NW8       30.26R WCI  18
6HR MIN TEMP:  26; 6HR MAX TEMP:  31;

SOUTH BEND     CLOUDY    31  23  72 NW6       30.27R WCI  25
6HR MIN TEMP:  31; 6HR MAX TEMP:  32;

WARSAW +       CLOUDY    32  21  64 NW7       30.24S WCI  26

$$

INZ006>009-017-018-025>027-221300-
NORTHEAST INDIANA

CITY           SKY/WX    TMP DP  RH WIND       PRES   REMARKS
AUBURN +       CLOUDY    32  23  69 N5        30.24R WCI  27
FORT WAYNE     MOCLDY    34  26  72 NW7       30.24R WCI  28
6HR MIN TEMP:  34; 6HR MAX TEMP:  35;

KENDALLVILLE + CLOUDY    31  24  74 N8        30.23R WCI  24

$$

INZ028-029-035-036-043>045-051>053-221300-
WEST CENTRAL INDIANA

CITY           SKY/WX    TMP DP  RH WIND       PRES   REMARKS
CRAWFORDSVL +  CLEAR     21  17  84 MISG        N/A
6HR MIN TEMP:  21; 6HR MAX TEMP:  26;

GREENCASTLE +  CLEAR     25  18  74 NW3       30.29R
LAFAYETTE      PTCLDY    23  17  78 NW12      30.30R WCI  12
6HR MIN TEMP:  22; 6HR MAX TEMP:  28;

TERRE HAUTE    CLEAR     24  17  74 NW6       30.32R WCI  17
6HR MIN TEMP:  24; 6HR MAX TEMP:  30;


$$

INZ030>032-037>040-046>048-054>057-064-065-221300-
CENTRAL INDIANA

CITY           SKY/WX    TMP DP  RH WIND       PRES   REMARKS
COLUMBUS       CLEAR     27  21  80 NW8       30.27  WCI  18
INDIANAPOLIS   CLEAR     23  18  81 NW8       30.28R WCI  14
6HR MIN TEMP:  23; 6HR MAX TEMP:  29;

-EAGLE CREEK   PTCLDY    26  19  74 NW10      30.27R WCI  16
6HR MIN TEMP:  26; 6HR MAX TEMP:  30;

KOKOMO +       CLOUDY    27  21  78 NW8       30.27R WCI  19
6HR MIN TEMP:  26; 6HR MAX TEMP:  31;

MT COMFORT *+  PTCLDY    25  23  93 NW8       30.26R WCI  16
SHELBYVILLE    CLEAR     25  19  78 NW7       30.25R WCI  17
6HR MIN TEMP:  25; 6HR MAX TEMP:  30;


$$

INZ033-034-041-042-049-050-058-059-221300-
EAST CENTRAL INDIANA

CITY           SKY/WX    TMP DP  RH WIND       PRES   REMARKS
MUNCIE         PTCLDY    29  23  78 NW9       30.24R WCI  20
6HR MIN TEMP:  29; 6HR MAX TEMP:  32;

RICHMOND +     CLOUDY    28  28 100 NW5       30.22R WCI  23

$$

INZ060-061-067>069-081>083-085>088-221300-
SOUTHWEST INDIANA

CITY           SKY/WX    TMP DP  RH WIND       PRES   REMARKS
EVANSVILLE     CLEAR     28  23  81 N5        30.34R WCI  23
6HR MIN TEMP:  28; 6HR MAX TEMP:  32;

HUNTINGBURG +  CLEAR     26  23  88 NW5       30.32R WCI  20
6HR MIN TEMP:  26; 6HR MAX TEMP:  32;


$$

INZ062-063-066-070>080-084-089>092-221300-
SOUTH CENTRAL AND SOUTHEAST INDIANA

CITY           SKY/WX    TMP DP  RH WIND       PRES   REMARKS
BLOOMINGTON    PTCLDY    26  18  71 VRB3      30.28R
6HR MIN TEMP:  26; 6HR MAX TEMP:  31;

MADISON *+     CLEAR     28  23  80 CALM      30.27R
SEYMOUR +      CLEAR     25  21  86 NW3       30.28R

$$





USA.gov is the U.S. government's official web portal to all federal, state and local government web resources and services.